Showing default

ORBCOMM FM 17, 25413

Orbit data source: Space-Track

ORBCOMM FM 17, 25413 is a payload satellite owned by Orbcomm (US) in LEO that was launched on Sun, 02 Aug 1998 UTC via a PEGASUS XL/HAPS launch vehicle from the Pegasus Launch, Eastern Range Air Space (ERAS). Payload-class satellites include a variety of spacecraft equipped with specific instruments for various scientific and technological missions. These include communications satellites like Starlink; space stations such as the ISS; scientific satellites like the Hubble; Earth observation satellites from companies like Planet Labs, Umbra, and HawkEye 360; GPS; miniature CubeSats for education and research; and military/defense satellites.

Loading next visibility...
Identifier
25413, 1998-046A
Orbit
LEO
Country
Flag of USUS / ORB
Related business
Manufacturer
OSC-Germantown
Mission
Non-operational Commercial Communications
Bus & Motor
MICROSTAR, Unknown motor
Mass
42 kg wet, 42 kg dry
Launch date (UTC)
1998-08-02 (28 years ago)
Launch vehicle
PEGASUS XL/HAPS
Launch site
Pegasus Launch, Eastern Range Air Space (ERAS)
Object type
Payload
Rocket body
Debris
Shape & HBR
Cyl + 2 Pan, 4.2 m
Radar Cross Section
1.484 m², Medium (>0.1 m² and < 1m²)

Expand to show TLE details & history
Last TLE update: 2 days ago

TLE from 2 days ago
0 ORBCOMM FM 17
1 25413U 98046A   26171.41039860  .00000445  00000-0  20029-3 0  9999
2 25413  44.9950 318.5760 0003155 232.7881 127.2679 14.35908693456088
Epoch: 2026-06-20T09:50Z
TLE epoch observation values (Epoch: 2026-06-20T09:50:58.439Z)
Latitude
0.00003°
Longitude
-97.79289°
Altitude
773.413 km
Speed
7.468 km/s
True Right ascension
21h 14m 18s
True Declination
0° 00' 00"
Sunlit
Object was in full shadow at epoch
Visualization orbit readout
Latitude
Unknown
Longitude
Unknown
Altitude
Unknown
Speed
Unknown
Apparent Right ascension
Unknown
Apparent Declination
Unknown
Sunlit
N/A
Visualization observer readout
Local Sidereal Time
23:20:38
Azimuth
Unknown
Elevation
Unknown
Doppler factor
Unknown
Orbital elements
Apogee altitude
775.85 km
Perigee altitude
771.337 km
Semi-major axis
7,151.731 km
Eccentricity
0.00032
Inclination
44.995°
RAAN
318.576°
Arg. of periapsis
232.7881°
True anomaly
127.29666°
Mean anomaly
127.2679°
Eccentric anomaly
127.28228°
Mean motion
3.58861 °/min
Orbital period
100.32 mins
BSTAR
0.00020029
Loading maneuver chart data...
Computing Atmospheric mass density...

Documentation

Showing up to 5 results
|